Location: Chippewa Lake
(41.0698°N, 81.9010°W)
Time: 22:00:57
(UTC+00:00)

Cosmos 1812 - Pass Details

Date: 09 May 2021
Orbit: 514 x 521 km, 82.5° (Epoch: 16 June)

Event Time Altitude Azimuth Distance (km) Brightness Sun altitude
Exits shadow 02:16:24 22° 78° (ENE) 1,178 4.2 -17.2°
Drops below altitude 10° 02:18:59 10° 37° (NE) 1,765 5.5 -17.5°
Sets 02:21:27 0° 22° (NNE) 2,658 6.6 -17.8°
